DW8284 Weather Reports


Display with metric or nautical units.
time (UTC)temp
F
wind
direction
speed
MPH
gust
MPH
rain 1hr
in
rain 24hr
in
rain mn
in
humidity
%
barometer
mb
20260506051043 48 0 0.0 1.0 0.00 0.03 0.00 83 1011.0
20260506050542 48 0 0.0 1.0 0.00 0.03 0.00 83 1011.0
20260506045041 48 0 0.0 1.0 0.00 0.03 0.03 84 1010.9
20260506044555 49 0 0.0 1.0 0.00 0.03 0.03 84 1011.1
20260506044038 49 0 0.0 1.0 0.00 0.03 0.03 83 1010.9
20260506043545 49 0 0.0 1.0 0.00 0.03 0.03 83 1010.8
20260506043043 49 0 0.0 1.0 0.00 0.03 0.03 83 1010.8
20260506042540 49 178 0.0 1.0 0.00 0.03 0.03 83 1010.9
20260506042041 49 0 0.0 1.0 0.00 0.03 0.03 83 1010.9
20260506041600 49 178 0.0 1.0 0.00 0.03 0.03 83 1010.8
20260506041041 49 0 0.0 0.0 0.00 0.03 0.03 83 1010.7
20260506040542 49 0 0.0 0.0 0.00 0.03 0.03 83 1010.7
20260506040049 49 0 0.0 0.0 0.00 0.03 0.03 83 1010.7
20260506035544 49 0 0.0 0.0 0.00 0.05 0.03 83 1011.0
20260506035043 49 0 0.0 0.0 0.00 0.05 0.03 83 1011.0
20260506034549 49 0 0.0 0.0 0.00 0.05 0.03 83 1011.0
20260506034041 49 0 0.0 0.0 0.00 0.05 0.03 83 1011.0
20260506033544 49 0 0.0 0.0 0.00 0.05 0.03 83 1011.0
20260506033048 50 0 0.0 0.0 0.00 0.05 0.03 84 1011.0
20260506032542 50 0 0.0 0.0 0.00 0.05 0.03 83 1011.2
20260506032041 50 0 0.0 0.0 0.00 0.05 0.03 83 1010.9
20260506031552 50 0 0.0 0.0 0.00 0.05 0.03 84 1010.9
20260506031041 50 0 0.0 0.0 0.00 0.05 0.03 83 1010.9
20260506030541 50 0 0.0 1.0 0.00 0.05 0.03 82 1010.9
20260506030046 50 0 0.0 1.0 0.00 0.05 0.03 81 1011.0
20260506025543 50 0 0.0 1.0 0.00 0.26 0.03 82 1011.0
20260506025040 50 0 0.0 1.0 0.00 0.26 0.03 82 1010.9
20260506024552 50 0 0.0 1.0 0.00 0.26 0.03 82 1011.1
20260506024040 50 0 0.0 1.0 0.00 0.26 0.03 82 1011.0
20260506023540 50 0 0.0 1.0 0.00 0.26 0.03 81 1011.0
20260506023051 50 0 0.0 1.0 0.00 0.26 0.03 81 1010.8
20260506022540 50 0 0.0 1.0 0.00 0.26 0.03 81 1010.9
20260506022040 50 0 0.0 1.0 0.00 0.26 0.03 80 1010.8
20260506021554 50 0 0.0 1.0 0.00 0.26 0.03 80 1010.6
20260506021039 50 0 0.0 1.0 0.00 0.26 0.03 81 1010.4
20260506020540 50 0 0.0 1.0 0.00 0.26 0.03 81 1010.3
20260506020051 51 0 0.0 1.0 0.00 0.26 0.03 80 1010.2
20260506015541 51 0 0.0 1.0 0.00 0.26 0.03 78 1010.0
20260506015041 51 0 0.0 1.0 0.00 0.26 0.03 76 1010.0
20260506014555 51 0 0.0 1.0 0.00 0.26 0.03 77 1010.0
20260506014040 51 0 0.0 1.0 0.00 0.26 0.03 77 1010.1
20260506013539 51 0 0.0 1.0 0.00 0.26 0.03 77 1010.3
20260506013043 51 178 0.0 1.0 0.00 0.26 0.03 76 1010.2
20260506012540 51 0 0.0 1.0 0.00 0.26 0.03 76 1010.1
20260506012040 51 0 0.0 1.0 0.00 0.26 0.03 76 1009.9
20260506011552 51 0 0.0 1.0 0.00 0.26 0.03 77 1009.9
20260506011040 51 0 0.0 1.0 0.00 0.26 0.03 77 1009.9
20260506010543 51 0 0.0 1.0 0.00 0.26 0.03 75 1009.7
20260506010048 51 0 0.0 1.0 0.00 0.26 0.03 74 1009.6
20260506005542 51 0 0.0 1.0 0.00 0.26 0.03 74 1009.6
20260506005040 51 0 0.0 1.0 0.00 0.26 0.03 74 1009.7
20260506004550 52 0 0.0 1.0 0.00 0.26 0.03 75 1009.6
20260506004041 52 0 0.0 1.0 0.00 0.26 0.03 73 1009.5
20260506003540 52 0 0.0 1.0 0.00 0.26 0.03 70 1009.5
20260506003049 52 0 0.0 1.0 0.00 0.26 0.03 70 1009.4
20260506002544 52 0 0.0 1.0 0.00 0.26 0.03 70 1009.4
20260506002040 52 0 0.0 1.0 0.00 0.26 0.03 69 1009.3
20260506001614 52 0 0.0 1.0 0.00 0.26 0.03 70 1009.3
20260506001040 52 0 0.0 1.0 0.00 0.26 0.03 70 1009.3
20260506000541 52 0 0.0 1.0 0.00 0.26 0.03 69 1009.2
20260506000051 52 0 0.0 1.0 0.00 0.26 0.03 69 1009.3
20260505235541 52 0 0.0 1.0 0.00 0.26 0.03 67 1009.3
20260505235041 52 0 0.0 1.0 0.00 0.26 0.03 67 1009.3
20260505234552 52 0 0.0 1.0 0.00 0.26 0.03 67 1009.3
20260505234042 52 0 0.0 2.0 0.00 0.26 0.03 66 1009.4
20260505233540 52 0 0.0 2.0 0.00 0.26 0.03 65 1009.4
20260505233054 52 0 0.0 2.0 0.00 0.26 0.03 65 1009.5
20260505232540 52 0 0.0 1.0 0.00 0.26 0.03 66 1009.6
20260505232040 53 0 0.0 1.0 0.00 0.26 0.03 66 1009.5
20260505231554 53 0 0.0 1.0 0.00 0.26 0.03 66 1009.5
20260505231044 53 0 0.0 2.0 0.00 0.26 0.03 66 1009.5
20260505230540 53 247 0.0 2.0 0.00 0.26 0.03 65 1009.5
20260505230113 53 0 0.0 1.0 0.00 0.26 0.03 64 1009.5
20260505225541 53 0 0.0 2.0 0.00 0.26 0.03 64 1009.3
20260505225040 53 34 0.0 3.0 0.00 0.26 0.03 63 1009.4
20260505224550 53 68 0.0 4.0 0.00 0.26 0.03 62 1009.6
20260505224041 53 80 0.0 4.0 0.00 0.26 0.03 60 1009.5
20260505223540 53 0 0.0 4.0 0.00 0.26 0.03 60 1009.6
20260505223057 53 238 0.0 4.0 0.00 0.26 0.03 59 1009.5
20260505222540 53 41 0.0 4.0 0.00 0.26 0.03 59 1009.4
20260505222042 53 278 1.0 3.0 0.00 0.26 0.03 60 1009.4
20260505221554 53 0 0.0 4.0 0.00 0.26 0.03 60 1009.6
20260505221039 53 51 1.0 4.0 0.00 0.26 0.03 60 1009.6
20260505220545 53 0 0.0 4.0 0.00 0.26 0.03 61 1009.5
20260505220100 53 41 0.0 4.0 0.00 0.26 0.03 60 1009.5
20260505215539 53 265 1.0 4.0 0.00 0.26 0.03 61 1009.6
20260505215039 53 281 0.0 3.0 0.00 0.26 0.03 62 1009.5
20260505214600 53 256 0.0 3.0 0.00 0.26 0.03 64 1009.7
20260505214037 53 0 0.0 2.0 0.00 0.26 0.03 68 1009.6
20260505213539 53 0 0.0 2.0 0.00 0.26 0.03 71 1009.6
20260505213057 53 0 0.0 2.0 0.00 0.26 0.03 70 1009.5
20260505212541 52 41 0.0 1.0 0.00 0.26 0.03 70 1009.5
20260505212041 52 0 0.0 2.0 0.00 0.26 0.03 70 1009.6
20260505211544 52 298 0.0 2.0 0.00 0.26 0.03 71 1009.7
20260505211038 52 0 0.0 1.0 0.00 0.26 0.03 74 1009.7
20260505210540 52 0 0.0 1.0 0.00 0.26 0.03 73 1009.9
20260505210056 52 0 0.0 1.0 0.00 0.26 0.03 72 1010.0
20260505205541 52 0 0.0 2.0 0.00 0.26 0.03 72 1009.9
20260505205039 52 0 0.0 2.0 0.00 0.26 0.03 72 1010.1
20260505204550 52 0 0.0 2.0 0.00 0.26 0.03 73 1010.3
20260505204040 52 0 0.0 2.0 0.00 0.26 0.03 71 1010.3
20260505203537 52 0 0.0 2.0 0.00 0.26 0.03 68 1010.2
20260505203049 52 265 0.0 2.0 0.00 0.26 0.03 68 1010.3
20260505202538 52 0 0.0 2.0 0.00 0.26 0.03 72 1010.6
20260505202038 52 0 0.0 2.0 0.00 0.26 0.03 70 1010.6
20260505201552 52 0 0.0 3.0 0.00 0.26 0.03 70 1010.6
20260505201042 52 178 0.0 3.0 0.00 0.26 0.03 72 1010.6
20260505200540 51 41 0.0 2.0 0.00 0.26 0.03 72 1010.6
20260505200045 51 0 0.0 2.0 0.00 0.26 0.03 71 1010.8
20260505195540 51 254 0.0 4.0 0.00 0.26 0.03 72 1010.9
20260505195044 51 0 0.0 4.0 0.00 0.26 0.03 71 1011.1
20260505194550 51 260 0.0 3.0 0.00 0.26 0.03 73 1011.0
20260505194041 51 0 0.0 2.0 0.00 0.26 0.03 74 1010.9
20260505193541 51 0 0.0 2.0 0.00 0.26 0.03 73 1010.9
20260505193051 52 0 0.0 1.0 0.00 0.26 0.03 73 1010.9
20260505192546 52 0 0.0 1.0 0.00 0.26 0.03 73 1010.9
20260505192038 52 178 0.0 1.0 0.00 0.26 0.03 72 1011.0
20260505191556 52 0 0.0 1.0 0.00 0.26 0.03 73 1010.9
20260505191039 52 0 0.0 1.0 0.00 0.26 0.03 71 1010.9
20260505190541 52 0 0.0 4.0 0.00 0.26 0.03 70 1011.0
20260505190110 52 205 0.0 4.0 0.00 0.26 0.03 68 1011.0
20260505185542 52 0 0.0 4.0 0.00 0.26 0.03 66 1011.0
20260505185042 52 0 0.0 2.0 0.00 0.26 0.03 69 1011.2
20260505184559 52 0 0.0 3.0 0.00 0.26 0.03 66 1010.9
20260505184041 52 250 0.0 3.0 0.00 0.26 0.03 64 1010.9
20260505183544 52 0 0.0 6.0 0.00 0.26 0.03 64 1010.8
20260505183051 52 265 0.0 6.0 0.00 0.26 0.03 65 1011.0
20260505182540 53 0 0.0 3.0 0.00 0.26 0.03 67 1011.0
20260505182040 53 281 0.0 4.0 0.00 0.26 0.03 65 1011.0
20260505181550 53 9 0.0 4.0 0.00 0.26 0.03 63 1011.0
20260505181043 53 26 1.0 4.0 0.00 0.26 0.03 61 1011.0
20260505180540 53 0 0.0 4.0 0.00 0.26 0.03 63 1010.9
20260505180053 53 34 0.0 4.0 0.00 0.26 0.03 64 1011.0
20260505175540 53 0 0.0 3.0 0.00 0.26 0.03 64 1011.0
20260505175037 53 253 0.0 3.0 0.00 0.26 0.03 65 1011.0
20260505174551 53 253 0.0 5.0 0.00 0.26 0.03 67 1010.9
20260505174040 53 0 0.0 5.0 0.00 0.26 0.03 69 1010.9
20260505173540 53 250 1.0 5.0 0.00 0.26 0.03 69 1010.8
20260505173049 53 51 0.0 4.0 0.00 0.26 0.03 69 1010.9
20260505172541 52 34 1.0 4.0 0.00 0.26 0.03 69 1010.8
20260505172040 52 278 0.0 2.0 0.00 0.26 0.03 75 1010.6
20260505171548 52 231 0.0 2.0 0.00 0.26 0.03 77 1010.8
20260505171041 52 221 0.0 3.0 0.00 0.26 0.03 77 1010.6
20260505170540 52 0 0.0 3.0 0.00 0.26 0.03 80 1010.7
20260505170057 51 9 1.0 3.0 0.00 0.26 0.03 80 1010.6
20260505165540 51 178 0.0 3.0 0.00 0.26 0.03 83 1010.5
20260505165040 51 178 0.0 2.0 0.00 0.26 0.03 82 1010.5
20260505164549 50 232 0.0 3.0 0.00 0.26 0.03 81 1010.4
20260505164040 50 0 0.0 3.0 0.00 0.26 0.03 83 1010.5
20260505163537 50 61 0.0 2.0 0.00 0.26 0.03 83 1010.4
20260505163044 50 0 0.0 3.0 0.00 0.26 0.03 83 1010.6
20260505162541 49 291 0.0 3.0 0.00 0.26 0.03 83 1010.7
20260505162041 49 0 0.0 2.0 0.00 0.26 0.03 82 1010.5
20260505161553 49 309 0.0 2.0 0.00 0.26 0.03 82 1010.7
20260505161041 49 0 0.0 2.0 0.00 0.26 0.03 82 1010.2
20260505160542 49 51 0.0 2.0 0.00 0.26 0.03 82 1010.2
20260505153106 48 0 0.0 2.0 0.00 0.26 0.03 85 1010.0
20260505152539 48 9 0.0 4.0 0.00 0.26 0.03 84 1010.1
20260505152041 48 64 0.0 4.0 0.00 0.26 0.03 84 1010.0
20260505151552 48 243 1.0 4.0 0.00 0.26 0.03 85 1010.0
20260505151039 47 41 0.0 3.0 0.00 0.26 0.03 86 1010.2
20260505150539 47 153 0.0 4.0 0.00 0.26 0.03 86 1009.8
20260505150110 47 93 1.0 4.0 0.00 0.26 0.03 85 1009.7
20260505140539 46 119 0.0 2.0 0.00 0.26 0.03 87 1009.5
20260505125039 47 0 0.0 5.0 0.02 0.25 0.02 84 1009.9
20260505124554 48 247 0.0 5.0 0.02 0.25 0.02 84 1009.8
20260505124038 48 271 0.0 5.0 0.02 0.25 0.02 83 1009.9
20260505123539 48 0 1.0 5.0 0.01 0.24 0.01 83 1009.7
20260505123109 48 51 0.0 4.0 0.01 0.24 0.01 83 1009.9
20260505122540 48 31 0.0 4.0 0.01 0.24 0.01 82 1010.1
20260505122039 48 0 0.0 3.0 0.01 0.24 0.01 82 1010.4
20260505121552 49 298 1.0 3.0 0.01 0.24 0.01 82 1010.5
20260505121044 49 257 0.0 3.0 0.01 0.24 0.01 82 1010.7
20260505120540 49 252 1.0 4.0 0.01 0.24 0.01 82 1010.5
20260505120055 49 291 1.0 4.0 0.00 0.23 0.00 82 1010.5
20260505115538 50 309 0.0 4.0 0.00 0.23 0.00 81 1010.1
20260505115040 50 247 0.0 3.0 0.00 0.23 0.00 80 1009.6
20260505114559 50 0 0.0 3.0 0.00 0.23 0.00 79 1009.2
20260505114039 50 0 0.0 3.0 0.00 0.23 0.00 77 1008.7
20260505113540 50 0 0.0 3.0 0.00 0.23 0.00 78 1008.5
20260505113055 50 265 0.0 4.0 0.00 0.23 0.00 78 1008.5
20260505112540 50 247 0.0 4.0 0.00 0.23 0.00 77 1008.4
20260505112042 50 282 0.0 3.0 0.00 0.23 0.00 78 1008.0
20260505111601 50 9 1.0 3.0 0.00 0.23 0.00 77 1008.0
20260505111041 50 9 0.0 3.0 0.00 0.23 0.00 77 1007.8
20260505110541 50 0 0.0 2.0 0.00 0.23 0.00 78 1008.3
20260505102041 51 325 0.0 4.0 0.00 0.23 0.00 80 1007.7
20260505101549 51 250 0.0 2.0 0.00 0.23 0.00 82 1007.7
20260505101042 51 0 0.0 2.0 0.00 0.23 0.00 84 1007.7
20260505100541 51 178 0.0 2.0 0.00 0.23 0.00 84 1007.8
20260505100054 51 161 0.0 2.0 0.00 0.23 0.00 83 1007.5
20260505095540 51 0 0.0 3.0 0.00 0.23 0.00 82 1007.3
20260505095043 52 250 0.0 3.0 0.00 0.23 0.00 83 1007.3
20260505094551 52 0 0.0 1.0 0.00 0.23 0.00 83 1007.2
20260505094041 52 0 0.0 1.0 0.00 0.23 0.00 84 1007.2
20260505093544 52 178 0.0 2.0 0.00 0.23 0.00 82 1007.2
20260505093052 52 0 0.0 2.0 0.00 0.23 0.00 81 1007.1
20260505092545 52 0 0.0 3.0 0.00 0.23 0.00 81 1007.5
20260505092039 52 265 0.0 3.0 0.00 0.23 0.00 79 1007.3
20260505091556 52 0 0.0 3.0 0.00 0.23 0.00 81 1007.4
20260505091040 52 0 0.0 1.0 0.00 0.23 0.00 82 1007.4
20260505090538 52 0 0.0 1.0 0.00 0.23 0.00 83 1007.8
20260505090106 52 0 0.0 2.0 0.00 0.23 0.00 81 1007.8
20260505085538 52 0 0.0 2.0 0.00 0.23 0.00 79 1007.5
20260505085041 52 0 0.0 3.0 0.00 0.23 0.00 79 1007.5
20260505084550 52 275 0.0 3.0 0.00 0.23 0.00 79 1007.3
20260505084039 52 0 1.0 3.0 0.00 0.23 0.00 77 1007.0
20260505083541 52 9 0.0 4.0 0.00 0.23 0.00 81 1006.9
20260505083107 52 0 0.0 4.0 0.00 0.23 0.00 81 1006.9
20260505082539 52 0 0.0 4.0 0.00 0.23 0.00 83 1007.0
20260505082040 52 0 0.0 4.0 0.00 0.23 0.00 84 1007.1
20260505081556 52 0 1.0 9.0 0.00 0.23 0.00 82 1006.8
20260505081040 52 178 0.0 9.0 0.00 0.23 0.00 85 1006.5
20260505080538 52 265 0.0 3.0 0.00 0.23 0.00 86 1006.3
20260505080055 52 265 1.0 4.0 0.00 0.23 0.00 87 1006.1
20260505075538 52 0 0.0 4.0 0.00 0.23 0.00 87 1005.8
20260505075038 52 0 0.0 2.0 0.00 0.23 0.00 90 1005.6
20260505074552 52 0 0.0 2.0 0.00 0.23 0.00 90 1005.6
20260505074040 52 178 0.0 1.0 0.00 0.23 0.00 90 1005.6
20260505073541 52 178 0.0 2.0 0.00 0.23 0.00 91 1005.4
20260505073058 52 0 0.0 2.0 0.00 0.23 0.00 90 1005.1
20260505072540 52 0 0.0 1.0 0.00 0.23 0.00 91 1005.3
20260505072040 52 0 0.0 1.0 0.00 0.23 0.00 90 1005.3
20260505071549 53 0 0.0 1.0 0.00 0.23 0.00 90 1005.3
20260505071040 53 0 0.0 2.0 0.00 0.23 0.00 90 1005.3
20260505070543 53 0 0.0 2.0 0.00 0.23 0.00 91 1005.3
20260505070055 53 178 0.0 2.0 0.00 0.23 0.00 91 1005.2
20260505065539 54 0 0.0 1.0 0.00 0.23 0.00 92 1005.2
20260505065041 54 0 0.0 1.0 0.00 0.23 0.00 92 1005.0
20260505064549 54 0 0.0 1.0 0.00 0.23 0.00 92 1005.0
20260505064038 54 0 0.0 2.0 0.00 0.23 0.00 92 1004.9
20260505063538 54 0 0.0 2.0 0.00 0.23 0.00 91 1004.8
20260505063051 54 178 0.0 2.0 0.00 0.23 0.00 91 1004.7
20260505062540 54 0 0.0 2.0 0.00 0.23 0.00 90 1004.4
20260505062037 54 193 0.0 2.0 0.00 0.23 0.00 89 1004.3
20260505061548 55 0 0.0 2.0 0.00 0.23 0.00 90 1004.2
20260505061040 55 0 0.0 2.0 0.00 0.23 0.00 90 1004.1
20260505060543 55 0 0.0 2.0 0.00 0.23 0.00 90 1004.3
20260505060056 55 178 0.0 3.0 0.00 0.23 0.00 89 1004.3
20260505055539 55 221 0.0 3.0 0.00 0.23 0.00 89 1004.1